Regional Weather Roundup
Issued by NWS Charleston, SC

Current Version | Previous Version | Graphics & Text | Print | Product List | Glossary On
Versions: 1 2 3 4 5 6 7 8 9 10 11 12 13 14 15 16 17 18 19 20 21 22 23 24 25 26 27 28 29 30 31 32 33 34 35 36 37 38 39 40 41 42 43 44 45 46 47 48 49 50
000
ASUS42 KCHS 311010
RWRCHS
REGIONAL WEATHER ROUNDUP
NATIONAL WEATHER SERVICE CHARLESTON SC
600 AM EDT FRI OCT 31 2014

NOTE: "FAIR" INDICATES FEW OR NO CLOUDS BELOW 12,000 FEET WITH NO
SIGNIFICANT WEATHER AND/OR OBSTRUCTIONS TO VISIBILITY.

NOT ALL STATIONS ARE QUALITY CONTROLLED BY THE NATIONAL
WEATHER SERVICE. USE DATA WITH CAUTION...ESPECIALLY
DEWPOINT OBSERVATIONS.

SCZ027-030-031-034>040-042>050-311100-
...SOUTH CAROLINA...

CITY           SKY/WX    TMP DP  RH WIND       PRES   REMARKS
N CHARLESTON   MOCLDY    57  51  80 NE7       29.88S
WATERFRONT PRK   N/A     61 N/A N/A N14         N/A
FORT JOHNSON   NOT AVBL
JOHNS ISLAND   MOSUNNY   57  57 100 CALM      29.88S
PINOPOLIS      NOT AVBL
MONCKS CORNER  FAIR      55  54  94 NE6       29.89R
SUMMERVILLE    FAIR      50  50 100 CALM      29.90S
BEAUFORT MCAS    N/A    N/A N/A N/A MISG        N/A
BEAUFORT ARPT  FAIR      57  55  94 N6        29.88S
HILTON HEAD IS NOT AVBL
GEORGETOWN     NOT AVBL
WALTERBORO     SUNNY     48 N/A N/A CALM      29.90S
ORANGEBURG     MOCLDY    51  46  83 CALM      29.90S
BARNWELL       FAIR      48  45  87 CALM      29.91S
AIKEN          FAIR      45  43  93 CALM      29.94S
MANNING        FAIR      50 N/A N/A CALM      29.90S
KINGSTREE      NOT AVBL
COLUMBIA       CLEAR     43  39  86 CALM      29.91S
SUMTER         CLEAR     46  44  91 NE6       29.90S
FLORENCE       CLEAR     47  44  90 N5        29.91F
MYRTLE BEACH   MOCLDY    54  46  76 N8        29.89S
N MYRTLE BEACH FAIR      51  49  92 N5        29.89F

$$

GAZ063-065-086>088-099>101-113>116-118-119-134-136>141-150-311100-
...GEORGIA...

CITY           SKY/WX    TMP DP  RH WIND       PRES   REMARKS
SAVANNAH ARPT  CLEAR     54  50  86 CALM      29.89S
HUNTER AAF     CLEAR     57  55  92 N5        29.86S
FORT STEWART   PTCLDY    52  51  95 NW2       29.87S
STATESBORO     NOT AVBL
SYLVANIA       SUNNY     52  51  98 CALM      29.90S
CLAXTON        FAIR      45  45 100 CALM      29.89F
THOMSON        CLEAR     41  41 100 CALM      29.96S
AUGUSTA-BUSH   CLEAR     41  40  96 CALM      29.92R FOG
AUGUSTA-DANIEL CLEAR     50  42  74 NW5       29.91S
SWAINSBORO     FAIR      45  45 100 MISG      29.91S
VIDALIA        MOCLDY    50  46  87 CALM      29.91S
ALMA           PTCLDY    51  45  79 N5        29.90R
WAYCROSS       CLOUDY    55  51  89 CALM      29.89S
JESUP          FAIR      54  54 100 CALM      29.89R FOG
BRUNSWICK      CLEAR     57  55  94 N3        29.88S
SAINT SIMONS   CLEAR     60  58  92 N6        29.87R

$$

SCZ027-028-034-036>038-045-046-048>050-GAZ119-141-311100-
...LAKE AND SUPPLEMENTAL COASTAL OBSERVATIONS...

STATION/POSITION TIME  TEMP    WIND        PRES    WAVE   SWELL
                       AIR SEA DIR/SP/G            HT/PER HT/PER/DIR
                 (UTC) (F)     (DEG/KT/KT) (MB)    (FT/S) (FT/S/D)
UPR LAKE MARION  NOT AVBL
WINYAH BAY       0900   58     360/  6     1012.0S
LAKE MURRAY      0900   49      CALM  /  1 1012.5F
ACE BASIN NERRS  0900   55      10/  2     1012.0S
FORT PULASKI     1000   62     350/  8/ 11 1011.8S
SAPELO ISLAND    NOT AVBL

$$

ANZ835-935-AMZ111-154-330-350-352-354-374-450-454-472-311100-
...C-MAN AND BUOY OBSERVATIONS...

STATION/POSITION TIME  TEMP    WIND        PRES    WAVE   SWELL
                       AIR SEA DIR/SP/G            HT/PER HT/PER/DIR
                 (UTC) (F)     (DEG/KT/KT) (MB)    (FT/S) (FT/S/D)
FOLLY BEACH CMAN 0900   62      10/ 13/ 16 1011.7F
BUOY 41004       1000   69 77   10/ 17/ 21 1009.4S   5/ 7   2/10
BUOY 41008       1000   68 74   10/ 12/ 16 1010.7R   3/ 6   2/140/ 7
5E ST. MARYS GA  1000      76                N/A     2/ 5
FRYING PAN BUOY  1000   65 73   20/ 19/ 25 1010.4F   6/ 6
BUOY 41025       1000   65      10/ 25/ 31 1009.6F   6/ 7
CAPE LOOKOUT NC  0900   60      20/ 17/ 21 1010.8F
BUOY 41002       0944   76 78  220/ 16/ 17 1009.8R   4/ 8   3/ 70/ 8
BUOY 41010       1000   77 82  360/  8/ 10 1009.5F   4/ 8   3/100/ 8
BUOY 41012       NOT AVBL
ST AUGUSTINE FL  1000   62     290/  5/  6 1011.0F
CAPERS NEARSHORE 0900   64      80/ 17/ 19   N/A
FRIPP NEARSHORE  NOT AVBL


$$



USA.gov is the U.S. government's official web portal to all federal, state and local government web resources and services.